SB KEPS @ AMSAT $ORB13080.N 2Line Orbital Elements 13080.AMSAT
HR AMSAT ORBITAL ELEMENTS FOR AMATEUR SATELLITES IN NASA FORMAT FROM WA5QGD FORT WORTH,TX March 21, 2013 BID: ORB13080.N
DECODE 2-LINE ELSETS WITH THE FOLLOWING KEY: 1 AAAAAU 00 0 0 BBBBB.BBBBBBBB .CCCCCCCC 00000-0 00000-0 0 DDDZ 2 AAAAA EEE.EEEE FFF.FFFF GGGGGGG HHH.HHHH III.IIII JJ.JJJJJJJJKKKKKZ KEY: A-CATALOGNUM B-EPOCHTIME C-DECAY D-ELSETNUM E-INCLINATION F-RAAN G-ECCENTRICITY H-ARGPERIGEE I-MNANOM J-MNMOTION K-ORBITNUM Z-CHECKSUM
TO ALL RADIO AMATEURS BT
AO-07 1 07530U 74089B 13079.99757900 -.00000034 00000-0 55266-4 0 6352 2 07530 101.4261 072.7240 0012385 100.5582 293.3316 12.53595344754738 FO-29 1 24278U 96046B 13080.74753194 -.00000028 00000-0 68264-5 0 779 2 24278 098.5648 150.9680 0350858 030.8714 111.9905 13.52997237819480 SO-33 1 25509U 98061B 13080.66354574 .00000448 00000-0 77781-4 0 4576 2 25509 031.4316 203.1385 0351372 111.7338 020.0944 14.28980157752365 RS-22 1 27939U 03042A 13080.51771691 .00000668 00000-0 13477-3 0 2581 2 27939 097.7995 272.9432 0014353 103.8500 256.4289 14.64358242506466 VO-52 1 28650U 05017B 13080.86665733 .00001094 00000-0 13796-3 0 3740 2 28650 097.5742 103.9421 0025882 204.7559 257.8675 14.83647146426134 HO-68 1 36122U 09072B 13080.64183544 -.00000044 00000-0 00000 0 0 3889 2 36122 100.3171 139.8715 0007406 191.4155 168.6790 13.16302811156898 UO-11 1 14781U 84021B 13080.19915351 .00000605 00000-0 85202-4 0 1301 2 14781 097.9124 142.7329 0008644 205.4570 154.6218 14.80789819560911 AO-16 1 20439U 90005D 13080.82588759 .00000113 00000-0 57937-4 0 7039 2 20439 098.4648 022.9134 0011875 061.6190 016.8891 14.32149127209733 LO-19 1 20442U 90005G 13079.82065737 .00000128 00000-0 62875-4 0 6354 2 20442 098.4331 024.0029 0012731 055.5349 338.3014 14.32361720209781 AO-27 1 22825U 93061C 13080.77958425 .00000100 00000-0 56184-4 0 3406 2 22825 098.6113 025.7651 0008643 177.3142 214.7574 14.29542364 16143 IO-26 1 22826U 93061D 13080.03256199 .00000098 00000-0 54969-4 0 968 2 22826 098.6049 025.3321 0009233 173.3071 248.3403 14.29823956 16160 GO-32 1 25397U 98043D 13080.81578385 .00000024 00000-0 28811-4 0 279 2 25397 098.4055 052.4202 0001720 149.1088 300.4832 14.23328101763512 NO-44 1 26931U 01043C 13080.18303850 .00000083 00000-0 64360-4 0 2851 2 26931 067.0507 126.3688 0006272 286.6894 110.0775 14.29898139598841 SO-50 1 27607U 02058C 13080.74772238 .00000634 00000-0 11792-3 0 211 2 27607 064.5568 170.3083 0056208 189.4013 314.4038 14.72820700550832 CO-55 1 27844U 03031E 13080.63301959 .00000238 00000-0 12943-3 0 6060 2 27844 098.7026 090.9761 0010738 138.5036 342.4004 14.21176041504290 CO-57 1 27848U 03031J 13080.03633580 .00000188 00000-0 10686-3 0 5522 2 27848 098.7113 089.8548 0010543 145.3396 248.5655 14.20906759504148 AO-51 1 28375U 04025K 13080.84018309 .00000160 00000-0 60912-4 0 5132 2 28375 098.1922 039.8529 0082172 280.3851 164.3977 14.41084888458753 CP3 1 31129U 07012N 13079.93905609 .00001038 00000-0 24341-3 0 4182 2 31129 097.8944 077.5874 0099544 342.8829 072.3260 14.53522413314170 CO-65 1 32785U 08021C 13080.72389984 .00001109 00000-0 14051-3 0 5832 2 32785 097.7610 140.7224 0013625 229.1365 277.8422 14.83658155264901 PRISM 1 33493U 09002B 13080.86592572 .00004065 00000-0 47632-3 0 6390 2 33493 098.2058 235.0062 0019271 115.6453 244.6772 14.85468710224957 SOHLA-1 1 33496U 09002E 13080.14236168 .00000462 00000-0 84986-4 0 9989 2 33496 098.1241 196.4500 0005769 232.0329 226.1541 14.70215033222930 SO-67 1 35870U 09049F 13080.87290685 .00006098 00000-0 23828-3 0 8967 2 35870 097.2016 112.7571 0000312 316.9771 168.4036 15.26222139194931 TISAT-1 1 36799U 10035E 13080.75101762 .00002385 00000-0 29996-3 0 9103 2 36799 098.0365 164.9365 0014422 357.5799 002.5328 14.82968489145615 STUDSAT 1 36801U 10035G 13078.87111317 .00005405 00000-0 60552-3 0 6021 2 36801 098.0463 165.4275 0011080 344.9572 080.3053 14.87237217145443 FO-69 1 37227U 0 13058.47095845 .00000509 00000-0 79251-4 0 00791 2 37227 071.9702 108.5053 0016475 214.8087 145.2122 14.77380366012706 FO-70 1 37380U 0 13057.30123492 -.00000046 00000-0 14930-5 0 00760 2 37380 071.9749 111.9690 0018455 208.9506 151.0634 14.77121324012601 ALMASAT-1 1 38078U 12006B 13080.78524296 .00017529 00000-0 43957-3 0 1054 2 38078 069.4848 043.1290 0716636 258.4127 093.5768 14.20353587 56810 XATCOBEO 1 38082U 12006F 13080.87207591 .00046192 34427-5 95509-3 0 103 2 38082 069.4840 026.5944 0627449 249.3352 103.9519 14.43455838 57278 NOAA-10 1 16969U 86073A 13080.52776021 .00000109 00000-0 61673-4 0 2852 2 16969 098.5537 110.2426 0013308 139.8122 009.3426 14.27621630379439 NOAA-11 1 19531U 88089A 13080.27705076 .00000026 00000-0 35874-4 0 2877 2 19531 098.7127 165.3739 0012098 149.3898 279.6016 14.15005711263693 NOAA-12 1 21263U 91032A 13080.46166478 .00000034 00000-0 32919-4 0 7615 2 21263 098.7045 106.5124 0014956 114.8278 021.1597 14.25552129136050 MET-3/5 1 21655U 91056A 13080.81128483 .00000023 00000-0 26766-4 0 6473 2 21655 082.5564 316.0409 0012992 353.2291 006.8654 13.17046376 38437 MET-2/21 1 22782U 93055A 13080.18198288 .00000040 00000-0 22816-4 0 6927 2 22782 082.5523 172.7409 0023887 097.1672 271.9550 13.83702495987474 OKEAN-4 1 23317U 94066A 13080.84376421 .00000651 00000-0 74392-4 0 1700 2 23317 082.5378 131.5363 0022513 151.8450 330.0867 14.84303992995980 NOAA-14 1 23455U 94089A 13080.46538404 -.00000029 00000-0 75854-5 0 2466 2 23455 098.8044 166.2258 0008695 243.1017 183.7684 14.13898018939977 NOAA-15 1 25338U 98030A 13080.47974953 .00000116 00000-0 68184-4 0 6638 2 25338 098.7197 071.1875 0010962 029.3507 122.8902 14.25189811772344 RESURS 1 25394U 98043A 13080.55818808 .00000004 00000-0 19423-4 0 3320 2 25394 098.3537 060.6371 0002415 126.0348 341.3994 14.24324148763887 FENGYUN1 1 25730U 99025A 13080.50657682 .00001502 00000-0 86951-3 0 8329 2 25730 098.8721 041.1365 0022537 295.2878 175.5246 14.10299359713682 OKEAN-0 1 25860U 99039A 13080.84243242 .00000499 00000-0 82497-4 0 8986 2 25860 097.9808 044.5181 0002111 093.8994 298.7093 14.74512565735489 NOAA-16 1 26536U 00055A 13080.46415331 .00000073 00000-0 63619-4 0 1408 2 26536 099.0531 132.3185 0010582 028.6495 085.8012 14.12851311644188 NOAA-17 1 27453U 02032A 13080.50334388 .00000112 00000-0 65744-4 0 663 2 27453 098.3169 099.2189 0012585 067.3478 096.4371 14.24544929558230 NOAA-18 1 28654U 05018A 13080.49802330 .00000050 00000-0 52468-4 0 5462 2 28654 099.0905 047.4994 0015411 095.5568 052.7227 14.11786364403683 NOAA-19 1 33591U 09005A 13080.48979507 .00000086 00000-0 72100-4 0 7352 2 33591 098.8972 023.2789 0013329 321.1357 148.5886 14.11473514212126 HUBBLE 1 20580U 90037B 13079.51642086 .00002005 00000-0 13172-3 0 1992 2 20580 028.4698 134.0096 0003464 121.3460 332.0673 15.03384634 56339 ISS 1 25544U 98067A 13080.79204657 .00024647 00000-0 40606-3 0 4540 2 25544 051.6478 182.2316 0011718 059.7125 080.2831 15.52100765821132 CO-58 1 28895U 05043F 13080.84340368 .00000627 00000-0 13660-3 0 4328 2 28895 097.8816 300.3857 0017405 001.6792 054.4023 14.61003601394197 FALCON 1 30776U 07006E 13080.16562350 .00004591 00000-0 28039-3 0 5749 2 30776 035.4320 022.1236 0002954 265.3795 229.1608 15.09834888332106 MAST 1 31126U 07012K 13080.59074874 .00000432 00000-0 10629-3 0 7098 2 31126 097.8790 081.5302 0092257 326.4963 182.1022 14.54476297314588 CAPE1 1 31130U 07012P 13080.54577750 .00000899 00000-0 21287-3 0 7201 2 31130 097.8950 077.8121 0099996 341.8271 017.9362 14.53359543314044 COMPASS 1 32787U 08021E 13080.85047192 .00001810 00000-0 21759-3 0 5742 2 32787 097.7623 141.6600 0014054 225.6171 246.7851 14.85106968265003 AAUSAT2 1 32788U 08021F 13080.80894192 .00001638 00000-0 19546-3 0 5624 2 32788 097.7629 142.1808 0013654 225.5822 198.9458 14.85534785265039 DO-64 1 32789U 08021G 13080.16520012 .00003483 00000-0 38644-3 0 5878 2 32789 097.7778 144.8321 0013653 222.3634 190.3965 14.87822932265034 CO-66 1 32791U 08021J 13080.70494799 .00001867 00000-0 22840-3 0 5586 2 32791 097.7626 140.9893 0014485 227.6300 278.8110 14.84320018264894 RS-30 1 32953U 08025A 13080.65117095 .00000010 00000-0 00000 0 0 6967 2 32953 082.5010 122.6316 0020071 065.8812 294.4370 12.43032253219030 METEOR-M 1 35865U 09049A 13080.68680554 -.00000020 00000-0 10670-4 0 3011 2 35865 098.6131 135.2165 0002442 351.4689 008.6445 14.21881433182034 RS-38 1 35869U 09049E 13080.66449392 .00000044 00000-0 39364-4 0 2763 2 35869 098.6075 135.1333 0004643 340.0054 020.0937 14.22117318182057 JUGNU 1 37839U 11058B 13080.40764344 .00000399 00000-0 71573-4 0 3520 2 37839 019.9610 118.6438 0019407 036.3461 081.7635 14.12133568 74479 SRMSAT 1 37841U 11058D 13079.56772602 .00000387 00000-0 68231-4 0 3540 2 37841 019.9713 134.0367 0012124 344.8480 137.4700 14.10207345 74246 RAX-2 1 37853U 11061D 13080.81830883 .00004521 00000-0 35085-3 0 4537 2 37853 101.7153 254.0295 0238527 277.7064 195.1285 14.82561347 75490 AUBIESAT 1 37854U 11061E 13080.81538256 .00004429 00000-0 33758-3 0 4517 2 37854 101.7190 254.7182 0238765 276.5523 198.7583 14.83176147 75508 HRBE 1 37855U 11061F 13080.80149471 .00003817 00000-0 29379-3 0 4484 2 37855 101.7191 254.5199 0239645 276.9550 200.1538 14.82898622 75492 RS-39 1 38051U 11062C 13080.88792726 .00014636 00000-0 50628-3 0 2759 2 38051 051.6351 271.0983 0011119 307.9742 191.6406 15.30057077 64401 E-STAR 1 38079U 12006C 13080.29205494 .00067581 37326-5 14074-2 0 9804 2 38079 069.4843 031.9297 0656968 252.4372 266.8394 14.36901207 57079 GOLIAT 1 38085U 12006J 13080.29048889 .00029718 32118-5 64257-3 0 9076 2 38085 069.4885 033.4995 0663147 253.1532 099.5886 14.35191501 57037 HORYU-2 1 38340U 12025D 13080.95768686 .00001127 00000-0 19326-3 0 4298 2 38340 098.2082 027.9122 0012933 164.9728 195.1826 14.70695844 45297 RS-40 1 38736U 12041D 13080.33578875 .00000010 00000-0 00000 0 0 2176 2 38736 082.4780 209.8918 0021322 151.2541 208.9719 12.43229668 29330 PROITERES 1 38756U 12047B 13080.82720832 .00000737 00000-0 11977-3 0 6146 2 38756 098.2586 156.2496 0013297 029.8208 330.3742 14.74113896 28526 RAIKO 1 38852U 98067CN 13080.55776685 .00053072 00000-0 54359-3 0 1704 2 38852 051.6408 176.4358 0015290 027.8841 332.2970 15.64303551 26099 FITSAT 1 1 38853U 98067CP 13080.48438671 .00073388 00000-0 65957-3 0 1716 2 38853 051.6425 175.2156 0012184 033.9564 326.2210 15.67484776 26150 TechEdSat 1 38854U 98067CQ 13080.64663430 .00166582 00000-0 97728-3 0 1965 2 38854 051.6370 170.2443 0012161 025.6147 334.5454 15.77158168 26239 F 1 1 38855U 98067CR 13080.11799039 .00154895 00000-0 97130-3 0 1931 2 38855 051.6362 173.4581 0011973 024.3740 335.7824 15.75689242 26036 WeWish 1 38856U 98067CS 13069.98095549 .16701328 12537-4 10063-2 0 2487 2 38856 051.6166 215.0521 0008325 316.0438 044.8765 16.41348316 24586 /EX